When you browse on this site, cookies collect data to enhance your experience and personalize the content and advertising you see.
Visit our Privacy Policy to learn more. By continuing to use the site, you agree to this use of cookies and data.
  • In Lithuania
  • List of Countries
  • For 7 days
  • Water Temperature
  • Weather Map
  • Weather Widgets
  • user-avatar
    Login

    Hourly Weather Mongu

    Today, 22 November, Friday

    Time Temperature Precipitation Wind Pressure Humidity
    00:00 +21°C° 0 mm 1 mps 672 mmHg 84%
    01:00 +19°C° 0 mm 0 mps 672 mmHg 84%
    02:00 +19°C° 0 mm 0 mps 671 mmHg 85%
    03:00 +19°C° 0 mm 0 mps 671 mmHg 85%
    04:00 +21°C° 0 mm 1 mps 671 mmHg 85%
    05:00 +21°C° 0 mm 1 mps 671 mmHg 86%
    06:00 +22°C° 0 mm 1 mps 671 mmHg 79%
    07:00 +24°C° 0 mm 2 mps 672 mmHg 73%
    08:00 +25°C° 0 mm 2 mps 673 mmHg 67%
    09:00 +28°C° 0 mm 2 mps 673 mmHg 58%
    10:00 +30°C° 0 mm 2 mps 674 mmHg 49%
    11:00 +34°C° 0 mm 2 mps 674 mmHg 41%
    12:00 +35°C° 0 mm 2 mps 673 mmHg 37%
    13:00 +36°C° 0 mm 2 mps 673 mmHg 33%
    14:00 +37°C° 0 mm 2 mps 672 mmHg 30%
    15:00 +36°C° 0 mm 2 mps 672 mmHg 32%
    16:00 +35°C° 0 mm 1 mps 671 mmHg 34%
    17:00 +34°C° 0 mm 1 mps 671 mmHg 35%
    18:00 +32°C° 0 mm 1 mps 671 mmHg 39%
    19:00 +30°C° 0 mm 1 mps 671 mmHg 43%
    20:00 +28°C° 0 mm 1 mps 671 mmHg 47%
    21:00 +28°C° 0 mm 1 mps 671 mmHg 52%
    22:00 +27°C° 0 mm 1 mps 672 mmHg 57%
    23:00 +26°C° 0 mm 2 mps 672 mmHg 62%

    Tomorrow, 23 November, Saturday

    Time Temperature Precipitation Wind Pressure Humidity
    00:00 +25°C° 0.1 mm 2 mps 672 mmHg 65%
    01:00 +25°C° 0.1 mm 2 mps 671 mmHg 69%
    02:00 +24°C° 0.1 mm 2 mps 671 mmHg 72%
    03:00 +24°C° 0.6 mm 1 mps 671 mmHg 75%
    04:00 +23°C° 0.6 mm 1 mps 671 mmHg 79%
    05:00 +23°C° 0.6 mm 1 mps 671 mmHg 83%
    06:00 +23°C° 0.5 mm 2 mps 672 mmHg 82%
    07:00 +24°C° 0.5 mm 2 mps 672 mmHg 80%
    08:00 +25°C° 0.5 mm 3 mps 673 mmHg 79%
    09:00 +25°C° 0 mm 2 mps 673 mmHg 78%
    10:00 +26°C° 0 mm 2 mps 673 mmHg 76%
    11:00 +26°C° 0 mm 2 mps 673 mmHg 75%
    12:00 +28°C° 1 mm 2 mps 672 mmHg 67%
    13:00 +30°C° 1 mm 1 mps 672 mmHg 58%
    14:00 +31°C° 1 mm 1 mps 672 mmHg 50%
    15:00 +32°C° 0 mm 1 mps 672 mmHg 49%
    16:00 +32°C° 0 mm 2 mps 672 mmHg 47%
    17:00 +32°C° 0 mm 2 mps 671 mmHg 45%
    18:00 +29°C° 0.7 mm 3 mps 672 mmHg 55%
    19:00 +26°C° 0.7 mm 3 mps 672 mmHg 65%
    20:00 +23°C° 0.7 mm 4 mps 672 mmHg 75%
    21:00 +22°C° 0.2 mm 3 mps 672 mmHg 78%
    22:00 +23°C° 0.2 mm 2 mps 672 mmHg 80%
    23:00 +23°C° 0.2 mm 2 mps 672 mmHg 83%

    Day after tomorrow, 24 November, Sunday

    Time Temperature Precipitation Wind Pressure Humidity
    00:00 +23°C° 0 mm 1 mps 672 mmHg 84%
    01:00 +23°C° 0 mm 1 mps 672 mmHg 85%
    02:00 +21°C° 0 mm 0 mps 672 mmHg 87%
    03:00 +20°C° 0.9 mm 0 mps 672 mmHg 89%
    04:00 +20°C° 0.9 mm 0 mps 672 mmHg 90%
    05:00 +20°C° 0.9 mm 0 mps 672 mmHg 92%
    06:00 +23°C° 0 mm 1 mps 672 mmHg 88%
    07:00 +24°C° 0 mm 1 mps 673 mmHg 84%
    08:00 +25°C° 0 mm 1 mps 674 mmHg 80%
    09:00 +26°C° 0 mm 2 mps 674 mmHg 72%
    10:00 +28°C° 0 mm 2 mps 674 mmHg 64%
    11:00 +29°C° 0 mm 2 mps 674 mmHg 57%
    12:00 +30°C° 0.2 mm 3 mps 674 mmHg 54%
    13:00 +30°C° 0.2 mm 4 mps 674 mmHg 52%
    14:00 +32°C° 0.2 mm 5 mps 673 mmHg 49%
    15:00 +29°C° 0.6 mm 3 mps 673 mmHg 58%
    16:00 +27°C° 0.6 mm 2 mps 672 mmHg 67%
    17:00 +23°C° 0.6 mm 0 mps 671 mmHg 76%
    18:00 +25°C° 0 mm 1 mps 671 mmHg 78%
    19:00 +24°C° 0 mm 1 mps 672 mmHg 80%
    20:00 +24°C° 0 mm 1 mps 672 mmHg 82%
    21:00 +24°C° 0 mm 1 mps 673 mmHg 82%
    22:00 +23°C° 0 mm 1 mps 673 mmHg 82%
    23:00 +23°C° 0 mm 1 mps 673 mmHg 82%

    25 November, Monday

    Time Temperature Precipitation Wind Pressure Humidity
    00:00 +23°C° 0 mm 1 mps 673 mmHg 83%
    01:00 +22°C° 0 mm 1 mps 672 mmHg 84%
    02:00 +22°C° 0 mm 1 mps 672 mmHg 85%
    03:00 +22°C° 0 mm 1 mps 672 mmHg 86%
    04:00 +22°C° 0 mm 1 mps 672 mmHg 88%
    05:00 +22°C° 0 mm 1 mps 672 mmHg 89%
    06:00 +21°C° 0 mm 2 mps 673 mmHg 87%
    07:00 +21°C° 0 mm 2 mps 674 mmHg 86%
    08:00 +22°C° 0 mm 3 mps 674 mmHg 84%
    09:00 +25°C° 0 mm 2 mps 675 mmHg 73%
    10:00 +27°C° 0 mm 2 mps 675 mmHg 63%
    11:00 +29°C° 0 mm 2 mps 676 mmHg 52%
    12:00 +29°C° 0.3 mm 2 mps 675 mmHg 53%
    13:00 +29°C° 0.3 mm 3 mps 674 mmHg 54%
    14:00 +29°C° 0.3 mm 3 mps 674 mmHg 55%
    15:00 +29°C° 0.2 mm 3 mps 673 mmHg 55%
    16:00 +28°C° 0.2 mm 2 mps 673 mmHg 54%
    17:00 +28°C° 0.2 mm 2 mps 672 mmHg 54%
    18:00 +27°C° 0 mm 2 mps 672 mmHg 58%
    19:00 +26°C° 0 mm 2 mps 673 mmHg 63%
    20:00 +24°C° 0 mm 2 mps 673 mmHg 67%
    21:00 +24°C° 0 mm 2 mps 673 mmHg 69%
    22:00 +23°C° 0 mm 1 mps 673 mmHg 71%
    23:00 +23°C° 0 mm 1 mps 673 mmHg 73%

    26 November, Tuesday

    Time Temperature Precipitation Wind Pressure Humidity
    00:00 +23°C° 0 mm 1 mps 673 mmHg 73%
    01:00 +23°C° 0 mm 1 mps 673 mmHg 73%
    02:00 +23°C° 0 mm 1 mps 672 mmHg 73%
    03:00 +23°C° 0 mm 1 mps 672 mmHg 74%
    04:00 +23°C° 0 mm 1 mps 672 mmHg 76%
    05:00 +21°C° 0 mm 0 mps 672 mmHg 77%
    06:00 +23°C° 0 mm 1 mps 673 mmHg 75%
    07:00 +24°C° 0 mm 1 mps 673 mmHg 73%
    08:00 +24°C° 0 mm 1 mps 674 mmHg 71%
    09:00 +27°C° 0 mm 1 mps 674 mmHg 63%
    10:00 +29°C° 0 mm 2 mps 674 mmHg 55%
    11:00 +31°C° 0 mm 2 mps 675 mmHg 46%
    12:00 +31°C° 0 mm 2 mps 674 mmHg 45%
    13:00 +32°C° 0 mm 2 mps 674 mmHg 43%
    14:00 +32°C° 0 mm 2 mps 673 mmHg 42%
    15:00 +31°C° 0.4 mm 2 mps 672 mmHg 49%
    16:00 +29°C° 0.4 mm 2 mps 672 mmHg 56%
    17:00 +28°C° 0.4 mm 2 mps 671 mmHg 63%
    18:00 +26°C° 2.7 mm 3 mps 672 mmHg 71%
    19:00 +24°C° 2.7 mm 3 mps 672 mmHg 80%
    20:00 +22°C° 2.7 mm 3 mps 672 mmHg 88%
    21:00 +22°C° 0.5 mm 3 mps 673 mmHg 88%
    22:00 +23°C° 0.5 mm 2 mps 673 mmHg 87%
    23:00 +23°C° 0.5 mm 2 mps 673 mmHg 87%

    27 November, Wednesday

    Time Temperature Precipitation Wind Pressure Humidity
    00:00 +23°C° 0.1 mm 1 mps 673 mmHg 86%
    01:00 +23°C° 0.1 mm 1 mps 672 mmHg 84%
    02:00 +23°C° 0.1 mm 1 mps 671 mmHg 83%
    03:00 +23°C° 0 mm 1 mps 671 mmHg 83%
    04:00 +23°C° 0 mm 1 mps 671 mmHg 83%
    05:00 +23°C° 0 mm 2 mps 671 mmHg 84%
    06:00 +23°C° 0 mm 2 mps 672 mmHg 80%
    07:00 +24°C° 0 mm 3 mps 673 mmHg 77%
    08:00 +25°C° 0 mm 4 mps 674 mmHg 74%
    09:00 +27°C° 0 mm 4 mps 674 mmHg 63%
    10:00 +29°C° 0 mm 5 mps 674 mmHg 53%
    11:00 +32°C° 0 mm 6 mps 675 mmHg 43%
    12:00 +33°C° 0 mm 5 mps 674 mmHg 40%
    13:00 +34°C° 0 mm 5 mps 673 mmHg 38%
    14:00 +35°C° 0 mm 4 mps 672 mmHg 35%
    15:00 +34°C° 0 mm 4 mps 672 mmHg 35%
    16:00 +34°C° 0 mm 3 mps 671 mmHg 36%
    17:00 +34°C° 0 mm 2 mps 671 mmHg 36%
    18:00 +31°C° 0 mm 2 mps 671 mmHg 39%
    19:00 +30°C° 0 mm 2 mps 671 mmHg 42%
    20:00 +28°C° 0 mm 2 mps 672 mmHg 44%
    21:00 +27°C° 0.3 mm 3 mps 672 mmHg 54%
    22:00 +26°C° 0.3 mm 3 mps 672 mmHg 64%
    23:00 +24°C° 0.3 mm 3 mps 672 mmHg 74%
    Show more